Station Historical Data
Daily Summary for March 6, 2017 Units:  English    Metric   Both
« Previous Day
Next Day »
Daily Weekly Monthly Yearly Custom
  High: Low: Average:
Temperature: 35.9 °F 31.2 °F 33.4 °F
Dew Point: 33.8 °F 29.1 °F 31.3 °F
Humidity: 92 % 92 % 92 %
Wind Speed: 17.0 mph 0.0 mph 4.4 mph
Wind Gust: 21.0 mph - -
Wind:- - SSE
Pressure: 30.44 in 30.20 in -
Precipitation: 0.00 in    
Historical Graphs
 
 
Tabular Data for March 6, 2017
Time Temperature Dew Point Pressure Wind Wind Speed Wind Gust Humidity Rainfall Rate (Hourly) solar
00:01 31.8 °F 29.8 °F 30.20 in South 6.0 mph 6.0 mph 92 % 0.00 in 0.00 W/m2
00:06 31.8 °F 29.8 °F 30.20 in South 7.0 mph 8.0 mph 92 % 0.00 in 0.00 W/m2
00:11 31.8 °F 29.8 °F 30.20 in SSE 8.0 mph 10.0 mph 92 % 0.00 in 0.00 W/m2
00:16 31.8 °F 29.8 °F 30.20 in South 8.0 mph 13.0 mph 92 % 0.00 in 0.00 W/m2
00:21 31.8 °F 29.8 °F 30.20 in South 9.0 mph 13.0 mph 92 % 0.00 in 0.00 W/m2
00:26 31.8 °F 29.8 °F 30.20 in SW 6.0 mph 14.0 mph 92 % 0.00 in 0.00 W/m2
00:31 31.9 °F 29.8 °F 30.21 in SSE 5.0 mph 7.0 mph 92 % 0.00 in 0.00 W/m2
00:36 31.9 °F 29.8 °F 30.21 in South 3.0 mph 15.0 mph 92 % 0.00 in 0.00 W/m2
00:41 31.9 °F 29.8 °F 30.21 in South 11.0 mph 14.0 mph 92 % 0.00 in 0.00 W/m2
00:46 31.9 °F 29.8 °F 30.21 in South 10.0 mph 12.0 mph 92 % 0.00 in 0.00 W/m2
00:51 31.9 °F 29.8 °F 30.22 in South 2.0 mph 6.0 mph 92 % 0.00 in 0.00 W/m2
00:56 31.9 °F 29.8 °F 30.22 in SSW 9.0 mph 11.0 mph 92 % 0.00 in 0.00 W/m2
01:01 31.9 °F 29.8 °F 30.22 in South 9.0 mph 11.0 mph 92 % 0.00 in 0.00 W/m2
01:06 31.9 °F 29.8 °F 30.22 in South 13.0 mph 14.0 mph 92 % 0.00 in 0.00 W/m2
01:11 31.9 °F 29.8 °F 30.22 in SSW 8.0 mph 11.0 mph 92 % 0.00 in 0.00 W/m2
01:16 31.9 °F 29.8 °F 30.22 in South 8.0 mph 12.0 mph 92 % 0.00 in 0.00 W/m2
01:21 31.9 °F 29.8 °F 30.22 in SSW 3.0 mph 9.0 mph 92 % 0.00 in 0.00 W/m2
01:26 31.9 °F 29.8 °F 30.22 in SSE 14.0 mph 14.0 mph 92 % 0.00 in 0.00 W/m2
01:31 31.9 °F 29.8 °F 30.22 in South 11.0 mph 12.0 mph 92 % 0.00 in 0.00 W/m2
01:36 31.9 °F 29.8 °F 30.22 in South 4.0 mph 14.0 mph 92 % 0.00 in 0.00 W/m2
01:41 31.9 °F 29.8 °F 30.22 in South 6.0 mph 11.0 mph 92 % 0.00 in 0.00 W/m2
01:46 31.9 °F 29.8 °F 30.23 in South 4.0 mph 9.0 mph 92 % 0.00 in 0.00 W/m2
01:51 31.9 °F 29.8 °F 30.23 in SSE 7.0 mph 8.0 mph 92 % 0.00 in 0.00 W/m2
01:56 31.9 °F 29.8 °F 30.23 in South 5.0 mph 11.0 mph 92 % 0.00 in 0.00 W/m2
02:01 31.9 °F 29.8 °F 30.22 in SSW 11.0 mph 12.0 mph 92 % 0.00 in 0.00 W/m2
02:06 31.9 °F 29.8 °F 30.23 in SSW 7.0 mph 13.0 mph 92 % 0.00 in 0.00 W/m2
02:11 31.8 °F 29.8 °F 30.22 in SSW 9.0 mph 10.0 mph 92 % 0.00 in 0.00 W/m2
02:16 31.9 °F 29.8 °F 30.22 in SSW 9.0 mph 11.0 mph 92 % 0.00 in 0.00 W/m2
02:21 31.9 °F 29.8 °F 30.22 in South 6.0 mph 14.0 mph 92 % 0.00 in 0.00 W/m2
02:26 31.9 °F 29.8 °F 30.22 in South 2.0 mph 12.0 mph 92 % 0.00 in 0.00 W/m2
02:31 31.8 °F 29.8 °F 30.22 in SSE 10.0 mph 14.0 mph 92 % 0.00 in 0.00 W/m2
02:36 31.8 °F 29.8 °F 30.21 in South 8.0 mph 10.0 mph 92 % 0.00 in 0.00 W/m2
02:41 31.8 °F 29.8 °F 30.21 in SSE 6.0 mph 12.0 mph 92 % 0.00 in 0.00 W/m2
02:46 31.8 °F 29.8 °F 30.22 in South 5.0 mph 6.0 mph 92 % 0.00 in 0.00 W/m2
02:51 31.7 °F 29.6 °F 30.21 in SSE 8.0 mph 13.0 mph 92 % 0.00 in 0.00 W/m2
02:56 31.7 °F 29.6 °F 30.22 in SSW 5.0 mph 10.0 mph 92 % 0.00 in 0.00 W/m2
03:01 31.7 °F 29.6 °F 30.22 in SSW 3.0 mph 4.0 mph 92 % 0.00 in 0.00 W/m2
03:06 31.7 °F 29.6 °F 30.22 in South 7.0 mph 15.0 mph 92 % 0.00 in 0.00 W/m2
03:11 31.7 °F 29.6 °F 30.22 in SSW 6.0 mph 16.0 mph 92 % 0.00 in 0.00 W/m2
03:16 31.7 °F 29.6 °F 30.23 in South 7.0 mph 14.0 mph 92 % 0.00 in 0.00 W/m2
03:22 31.7 °F 29.6 °F 30.22 in SSW 5.0 mph 11.0 mph 92 % 0.04 in 0.00 W/m2
03:27 31.6 °F 29.5 °F 30.22 in South 4.0 mph 13.0 mph 92 % 0.04 in 0.00 W/m2
03:32 31.6 °F 29.5 °F 30.23 in South 10.0 mph 10.0 mph 92 % 0.04 in 0.00 W/m2
03:37 31.6 °F 29.5 °F 30.23 in South 10.0 mph 18.0 mph 92 % 0.00 in 0.00 W/m2
03:42 31.6 °F 29.5 °F 30.23 in SSW 8.0 mph 17.0 mph 92 % 0.00 in 0.00 W/m2
03:47 31.5 °F 29.5 °F 30.24 in SSW 4.0 mph 8.0 mph 92 % 0.00 in 0.00 W/m2
03:52 31.5 °F 29.5 °F 30.24 in SSW 7.0 mph 8.0 mph 92 % 0.00 in 0.00 W/m2
03:57 31.5 °F 29.5 °F 30.24 in South 8.0 mph 12.0 mph 92 % 0.00 in 0.00 W/m2
04:02 31.5 °F 29.5 °F 30.24 in SSW 10.0 mph 11.0 mph 92 % 0.00 in 0.00 W/m2
04:07 31.4 °F 29.4 °F 30.24 in SSE 10.0 mph 13.0 mph 92 % 0.00 in 0.00 W/m2
04:12 31.5 °F 29.5 °F 30.25 in South 10.0 mph 13.0 mph 92 % 0.00 in 0.00 W/m2
04:17 31.4 °F 29.4 °F 30.25 in South 6.0 mph 8.0 mph 92 % 0.00 in 0.00 W/m2
04:22 31.4 °F 29.4 °F 30.25 in South 8.0 mph 11.0 mph 92 % 0.00 in 0.00 W/m2
04:27 31.5 °F 29.5 °F 30.25 in SSW 11.0 mph 12.0 mph 92 % 0.00 in 0.00 W/m2
04:32 31.4 °F 29.4 °F 30.26 in South 6.0 mph 10.0 mph 92 % 0.00 in 0.00 W/m2
04:37 31.4 °F 29.4 °F 30.26 in South 10.0 mph 14.0 mph 92 % 0.00 in 0.00 W/m2
04:42 31.4 °F 29.4 °F 30.26 in South 9.0 mph 11.0 mph 92 % 0.04 in 0.00 W/m2
04:47 31.4 °F 29.4 °F 30.26 in South 7.0 mph 11.0 mph 92 % 0.04 in 0.00 W/m2
04:52 31.4 °F 29.4 °F 30.26 in South 8.0 mph 10.0 mph 92 % 0.07 in 0.00 W/m2
04:57 31.4 °F 29.4 °F 30.26 in Calm   9.0 mph 92 % 0.07 in 0.00 W/m2
05:02 31.4 °F 29.4 °F 30.26 in South 10.0 mph 10.0 mph 92 % 0.06 in 0.00 W/m2
05:07 31.4 °F 29.4 °F 30.26 in South 7.0 mph 9.0 mph 92 % 0.06 in 0.00 W/m2
05:12 31.4 °F 29.4 °F 30.26 in South 10.0 mph 13.0 mph 92 % 0.07 in 0.00 W/m2
05:17 31.3 °F 29.2 °F 30.26 in South 10.0 mph 14.0 mph 92 % 0.06 in 0.00 W/m2
05:22 31.4 °F 29.4 °F 30.26 in South 6.0 mph 8.0 mph 92 % 0.04 in 0.00 W/m2
05:27 31.3 °F 29.2 °F 30.27 in South 12.0 mph 14.0 mph 92 % 0.00 in 0.00 W/m2
05:32 31.3 °F 29.2 °F 30.27 in South 6.0 mph 8.0 mph 92 % 0.00 in 0.00 W/m2
05:37 31.3 °F 29.2 °F 30.27 in South 14.0 mph 15.0 mph 92 % 0.00 in 0.00 W/m2
05:38 31.3 °F 29.2 °F 30.27 in South 3.0 mph 15.0 mph 92 % 0.00 in 0.00 W/m2
05:43 31.3 °F 29.2 °F 30.27 in SSW 11.0 mph 13.0 mph 92 % 0.00 in 0.00 W/m2
05:48 31.3 °F 29.2 °F 30.27 in South 8.0 mph 14.0 mph 92 % 0.00 in 0.00 W/m2
05:53 31.3 °F 29.2 °F 30.28 in South 11.0 mph 11.0 mph 92 % 0.00 in 0.00 W/m2
05:58 31.3 °F 29.2 °F 30.28 in South 5.0 mph 14.0 mph 92 % 0.00 in 0.00 W/m2
06:03 31.3 °F 29.2 °F 30.28 in SSW 4.0 mph 13.0 mph 92 % 0.00 in 0.00 W/m2
06:08 31.3 °F 29.2 °F 30.28 in SSE 9.0 mph 13.0 mph 92 % 0.05 in 0.00 W/m2
06:13 31.2 °F 29.1 °F 30.28 in South 11.0 mph 15.0 mph 92 % 0.05 in 0.00 W/m2
06:18 31.2 °F 29.1 °F 30.28 in SSW 10.0 mph 19.0 mph 92 % 0.05 in 0.00 W/m2
06:23 31.2 °F 29.1 °F 30.28 in SSE 9.0 mph 17.0 mph 92 % 0.05 in 0.00 W/m2
06:28 31.2 °F 29.1 °F 30.28 in SSE 12.0 mph 15.0 mph 92 % 0.04 in 0.00 W/m2
06:33 31.2 °F 29.1 °F 30.28 in SSW 2.0 mph 17.0 mph 92 % 0.00 in 0.00 W/m2
06:38 31.2 °F 29.1 °F 30.28 in SSE 7.0 mph 13.0 mph 92 % 0.00 in 0.00 W/m2
06:43 31.2 °F 29.1 °F 30.29 in SSE 14.0 mph 15.0 mph 92 % 0.00 in 0.00 W/m2
06:48 31.2 °F 29.1 °F 30.29 in South 12.0 mph 18.0 mph 92 % 0.00 in 5.00 W/m2
06:53 31.2 °F 29.1 °F 30.30 in SSW 4.0 mph 15.0 mph 92 % 0.00 in 11.00 W/m2
06:58 31.2 °F 29.1 °F 30.30 in South 11.0 mph 15.0 mph 92 % 0.00 in 12.00 W/m2
07:03 31.2 °F 29.1 °F 30.30 in SSE 7.0 mph 13.0 mph 92 % 0.00 in 9.00 W/m2
07:08 31.2 °F 29.1 °F 30.31 in SSE 6.0 mph 14.0 mph 92 % 0.00 in 9.00 W/m2
07:13 31.2 °F 29.1 °F 30.30 in South 14.0 mph 15.0 mph 92 % 0.00 in 18.00 W/m2
07:18 31.2 °F 29.1 °F 30.30 in SE 17.0 mph 21.0 mph 92 % 0.00 in 18.00 W/m2
07:23 31.2 °F 29.1 °F 30.31 in SSE 11.0 mph 14.0 mph 92 % 0.00 in 25.00 W/m2
07:28 31.2 °F 29.1 °F 30.31 in South 6.0 mph 11.0 mph 92 % 0.00 in 40.00 W/m2
07:33 31.2 °F 29.1 °F 30.31 in SSE 13.0 mph 16.0 mph 92 % 0.00 in 33.00 W/m2
07:38 31.2 °F 29.1 °F 30.31 in South 8.0 mph 12.0 mph 92 % 0.00 in 30.00 W/m2
07:43 31.2 °F 29.1 °F 30.32 in South 13.0 mph 14.0 mph 92 % 0.00 in 30.00 W/m2
07:48 31.2 °F 29.1 °F 30.32 in SSE 7.0 mph 13.0 mph 92 % 0.00 in 28.00 W/m2
09:56 31.9 °F 29.8 °F 30.36 in SSE 8.0 mph 8.0 mph 92 % 0.00 in 167.00 W/m2
10:01 32.0 °F 29.9 °F 30.36 in South 14.0 mph 15.0 mph 92 % 0.00 in 283.00 W/m2
10:06 32.0 °F 29.9 °F 30.36 in SE 10.0 mph 11.0 mph 92 % 0.00 in 258.00 W/m2
10:11 32.1 °F 30.0 °F 30.37 in South 6.0 mph 9.0 mph 92 % 0.00 in 176.00 W/m2
10:16 32.2 °F 30.1 °F 30.37 in SSE 9.0 mph 12.0 mph 92 % 0.00 in 148.00 W/m2
10:21 32.2 °F 30.1 °F 30.37 in Calm   1.0 mph 92 % 0.00 in 156.00 W/m2
10:26 32.3 °F 30.2 °F 30.37 in SSE 8.0 mph 8.0 mph 92 % 0.00 in 169.00 W/m2
10:31 32.3 °F 30.2 °F 30.38 in SSE 11.0 mph 11.0 mph 92 % 0.00 in 171.00 W/m2
10:36 32.3 °F 30.2 °F 30.38 in South 6.0 mph 6.0 mph 92 % 0.00 in 162.00 W/m2
10:41 32.4 °F 30.3 °F 30.38 in SSE 7.0 mph 8.0 mph 92 % 0.00 in 163.00 W/m2
10:46 32.4 °F 30.3 °F 30.39 in South 14.0 mph 15.0 mph 92 % 0.00 in 171.00 W/m2
10:51 32.5 °F 30.4 °F 30.39 in SE 7.0 mph 13.0 mph 92 % 0.00 in 148.00 W/m2
10:56 32.6 °F 30.5 °F 30.39 in South 11.0 mph 13.0 mph 92 % 0.00 in 188.00 W/m2
11:01 32.6 °F 30.5 °F 30.39 in SSE 11.0 mph 11.0 mph 92 % 0.00 in 158.00 W/m2
11:03 32.6 °F 30.5 °F 30.39 in SSE 10.0 mph 13.0 mph 92 % 0.00 in 171.00 W/m2
11:08 32.7 °F 30.6 °F 30.39 in South 8.0 mph 12.0 mph 92 % 0.00 in 146.00 W/m2
11:13 32.7 °F 30.6 °F 30.39 in SSE 4.0 mph 10.0 mph 92 % 0.00 in 121.00 W/m2
11:18 32.7 °F 30.6 °F 30.39 in SSE 7.0 mph 10.0 mph 92 % 0.00 in 178.00 W/m2
11:23 32.8 °F 30.7 °F 30.39 in SSE 6.0 mph 11.0 mph 92 % 0.00 in 163.00 W/m2
11:28 32.9 °F 30.8 °F 30.39 in SE 9.0 mph 13.0 mph 92 % 0.00 in 144.00 W/m2
11:33 32.9 °F 30.8 °F 30.40 in SSE 7.0 mph 12.0 mph 92 % 0.00 in 211.00 W/m2
11:38 33.0 °F 30.9 °F 30.40 in SE 11.0 mph 11.0 mph 92 % 0.00 in 190.00 W/m2
11:43 33.0 °F 30.9 °F 30.40 in SSE 1.0 mph 9.0 mph 92 % 0.00 in 214.00 W/m2
11:48 33.1 °F 31.0 °F 30.40 in South 5.0 mph 13.0 mph 92 % 0.00 in 248.00 W/m2
11:53 33.2 °F 31.1 °F 30.40 in SSE 4.0 mph 10.0 mph 92 % 0.00 in 230.00 W/m2
11:58 33.2 °F 31.1 °F 30.40 in SSE 7.0 mph 8.0 mph 92 % 0.00 in 188.00 W/m2
12:03 33.2 °F 31.1 °F 30.40 in Calm   10.0 mph 92 % 0.00 in 185.00 W/m2
12:08 33.3 °F 31.2 °F 30.40 in SE 6.0 mph 9.0 mph 92 % 0.00 in 185.00 W/m2
12:13 33.3 °F 31.2 °F 30.40 in SSE 7.0 mph 8.0 mph 92 % 0.00 in 185.00 W/m2
12:18 33.3 °F 31.2 °F 30.40 in SSE 5.0 mph 9.0 mph 92 % 0.00 in 204.00 W/m2
12:23 33.3 °F 31.2 °F 30.40 in SE 6.0 mph 10.0 mph 92 % 0.00 in 190.00 W/m2
12:28 33.4 °F 31.3 °F 30.40 in SSE 6.0 mph 11.0 mph 92 % 0.00 in 204.00 W/m2
12:33 33.4 °F 31.3 °F 30.40 in SE 5.0 mph 10.0 mph 92 % 0.00 in 209.00 W/m2
12:38 33.4 °F 31.3 °F 30.40 in SE 8.0 mph 10.0 mph 92 % 0.00 in 156.00 W/m2
12:43 33.4 °F 31.3 °F 30.40 in SE 7.0 mph 10.0 mph 92 % 0.00 in 160.00 W/m2
12:48 33.4 °F 31.3 °F 30.39 in Calm   5.0 mph 92 % 0.00 in 118.00 W/m2
12:53 33.4 °F 31.3 °F 30.39 in Calm     92 % 0.00 in 127.00 W/m2
12:58 33.4 °F 31.3 °F 30.39 in Calm     92 % 0.00 in 123.00 W/m2
13:03 33.4 °F 31.3 °F 30.39 in Calm     92 % 0.00 in 98.00 W/m2
13:08 33.4 °F 31.3 °F 30.39 in Calm     92 % 0.00 in 121.00 W/m2
13:13 33.4 °F 31.3 °F 30.39 in Calm     92 % 0.00 in 107.00 W/m2
13:18 33.4 °F 31.3 °F 30.39 in Calm     92 % 0.00 in 118.00 W/m2
13:24 33.4 °F 31.3 °F 30.39 in Calm     92 % 0.00 in 128.00 W/m2
13:29 33.4 °F 31.3 °F 30.40 in Calm     92 % 0.00 in 111.00 W/m2
13:34 33.4 °F 31.3 °F 30.40 in Calm     92 % 0.00 in 144.00 W/m2
13:39 33.4 °F 31.3 °F 30.39 in Calm     92 % 0.00 in 176.00 W/m2
13:44 33.5 °F 31.4 °F 30.40 in Calm     92 % 0.00 in 387.00 W/m2
13:45 33.5 °F 31.4 °F 30.40 in Calm     92 % 0.00 in 476.00 W/m2
13:47 33.5 °F 31.4 °F 30.39 in Calm     92 % 0.00 in 369.00 W/m2
13:52 33.6 °F 31.5 °F 30.39 in Calm     92 % 0.00 in 464.00 W/m2
13:56 33.7 °F 31.6 °F 30.39 in Calm     92 % 0.00 in 406.00 W/m2
13:58 33.8 °F 31.7 °F 30.39 in Calm     92 % 0.00 in 359.00 W/m2
14:01 33.8 °F 31.7 °F 30.39 in Calm     92 % 0.00 in 297.00 W/m2
14:06 34.0 °F 31.9 °F 30.39 in SE 5.0 mph 5.0 mph 92 % 0.00 in 318.00 W/m2
14:11 34.1 °F 32.0 °F 30.39 in SE 4.0 mph 4.0 mph 92 % 0.00 in 274.00 W/m2
14:16 34.2 °F 32.1 °F 30.39 in SE 7.0 mph 7.0 mph 92 % 0.00 in 485.00 W/m2
14:21 34.3 °F 32.2 °F 30.39 in Calm     92 % 0.00 in 329.00 W/m2
14:26 34.4 °F 32.3 °F 30.39 in SE 8.0 mph 8.0 mph 92 % 0.00 in 274.00 W/m2
14:31 34.5 °F 32.4 °F 30.38 in SE 12.0 mph 12.0 mph 92 % 0.00 in 478.00 W/m2
14:36 34.6 °F 32.5 °F 30.38 in ESE 7.0 mph 7.0 mph 92 % 0.00 in 387.00 W/m2
14:41 34.7 °F 32.6 °F 30.38 in SE 5.0 mph 5.0 mph 92 % 0.00 in 396.00 W/m2
14:46 34.8 °F 32.7 °F 30.38 in ESE 4.0 mph 6.0 mph 92 % 0.00 in 378.00 W/m2
14:51 34.9 °F 32.8 °F 30.37 in Calm   5.0 mph 92 % 0.00 in 362.00 W/m2
14:54 35.0 °F 32.9 °F 30.37 in SE 4.0 mph 14.0 mph 92 % 0.00 in 353.00 W/m2
14:59 35.1 °F 33.0 °F 30.37 in SE 8.0 mph 11.0 mph 92 % 0.00 in 390.00 W/m2
15:04 35.3 °F 33.2 °F 30.37 in SSE 1.0 mph 12.0 mph 92 % 0.00 in 366.00 W/m2
15:05 35.3 °F 33.2 °F 30.37 in SE 1.0 mph 12.0 mph 92 % 0.00 in 374.00 W/m2
15:08 35.4 °F 33.3 °F 30.37 in Calm   7.0 mph 92 % 0.00 in 415.00 W/m2
15:10 35.5 °F 33.4 °F 30.37 in SE 6.0 mph 14.0 mph 92 % 0.00 in 420.00 W/m2
15:15 35.6 °F 33.5 °F 30.38 in SE 2.0 mph 14.0 mph 92 % 0.00 in 302.00 W/m2
15:20 35.7 °F 33.6 °F 30.37 in Calm   12.0 mph 92 % 0.00 in 288.00 W/m2
15:21 35.7 °F 33.6 °F 30.37 in Calm   12.0 mph 92 % 0.00 in 255.00 W/m2
15:26 35.9 °F 33.8 °F 30.37 in Calm     92 % 0.00 in 199.00 W/m2
15:31 35.9 °F 33.8 °F 30.37 in Calm   13.0 mph 92 % 0.00 in 179.00 W/m2
15:36 35.9 °F 33.8 °F 30.38 in Calm   11.0 mph 92 % 0.00 in 190.00 W/m2
15:41 35.9 °F 33.8 °F 30.38 in SE 6.0 mph 10.0 mph 92 % 0.00 in 121.00 W/m2
15:46 35.9 °F 33.8 °F 30.38 in SE 8.0 mph 11.0 mph 92 % 0.00 in 139.00 W/m2
15:51 35.9 °F 33.8 °F 30.38 in Calm   8.0 mph 92 % 0.00 in 111.00 W/m2
15:56 35.9 °F 33.8 °F 30.38 in SE 4.0 mph 12.0 mph 92 % 0.00 in 98.00 W/m2
16:01 35.9 °F 33.8 °F 30.38 in SE 13.0 mph 13.0 mph 92 % 0.00 in 134.00 W/m2
16:06 35.9 °F 33.8 °F 30.38 in SE 7.0 mph 11.0 mph 92 % 0.00 in 90.00 W/m2
16:11 35.8 °F 33.7 °F 30.38 in SE 4.0 mph 10.0 mph 92 % 0.00 in 65.00 W/m2
16:16 35.8 °F 33.7 °F 30.38 in ESE 6.0 mph 11.0 mph 92 % 0.00 in 53.00 W/m2
16:21 35.8 °F 33.7 °F 30.38 in SE 4.0 mph 9.0 mph 92 % 0.00 in 70.00 W/m2
16:25 35.8 °F 33.7 °F 30.38 in SE 5.0 mph 9.0 mph 92 % 0.00 in 77.00 W/m2
16:28 35.7 °F 33.6 °F 30.38 in SE 5.0 mph 9.0 mph 92 % 0.00 in 76.00 W/m2
16:31 35.7 °F 33.6 °F 30.38 in SE 4.0 mph 9.0 mph 92 % 0.00 in 77.00 W/m2
16:36 35.7 °F 33.6 °F 30.38 in SE 2.0 mph 7.0 mph 92 % 0.00 in 62.00 W/m2
16:41 35.7 °F 33.6 °F 30.38 in SE 4.0 mph 10.0 mph 92 % 0.00 in 58.00 W/m2
16:46 35.6 °F 33.5 °F 30.37 in SE 4.0 mph 9.0 mph 92 % 0.00 in 54.00 W/m2
16:51 35.6 °F 33.5 °F 30.37 in SE 8.0 mph 9.0 mph 92 % 0.00 in 32.00 W/m2
16:52 35.6 °F 33.5 °F 30.37 in SE 5.0 mph 7.0 mph 92 % 0.00 in 32.00 W/m2
16:54 35.6 °F 33.5 °F 30.38 in SE 5.0 mph 7.0 mph 92 % 0.00 in 25.00 W/m2
16:57 35.5 °F 33.4 °F 30.37 in SE 4.0 mph 7.0 mph 92 % 0.00 in 19.00 W/m2
17:00 35.5 °F 33.4 °F 30.37 in SE 4.0 mph 7.0 mph 92 % 0.00 in 32.00 W/m2
17:02 35.5 °F 33.4 °F 30.37 in SE 6.0 mph 7.0 mph 92 % 0.00 in 35.00 W/m2
17:12 35.4 °F 33.3 °F 30.37 in SE 5.0 mph 6.0 mph 92 % 0.00 in 40.00 W/m2
17:17 35.4 °F 33.3 °F 30.37 in SE 4.0 mph 7.0 mph 92 % 0.00 in 21.00 W/m2
17:22 35.3 °F 33.2 °F 30.37 in SE 5.0 mph 10.0 mph 92 % 0.00 in 23.00 W/m2
17:27 35.4 °F 33.3 °F 30.37 in SE 4.0 mph 4.0 mph 92 % 0.00 in 19.00 W/m2
17:32 35.4 °F 33.3 °F 30.37 in SE 5.0 mph 8.0 mph 92 % 0.00 in 11.00 W/m2
17:37 35.3 °F 33.2 °F 30.37 in Calm   4.0 mph 92 % 0.00 in 5.00 W/m2
17:42 35.3 °F 33.2 °F 30.38 in Calm     92 % 0.00 in 7.00 W/m2
17:47 35.3 °F 33.2 °F 30.37 in Calm     92 % 0.00 in 5.00 W/m2
17:52 35.3 °F 33.2 °F 30.38 in Calm     92 % 0.00 in 0.00 W/m2
17:57 35.3 °F 33.2 °F 30.38 in Calm     92 % 0.00 in 0.00 W/m2
18:02 35.2 °F 33.1 °F 30.38 in Calm     92 % 0.00 in 0.00 W/m2
18:07 35.2 °F 33.1 °F 30.38 in Calm     92 % 0.00 in 0.00 W/m2
18:12 35.2 °F 33.1 °F 30.38 in Calm     92 % 0.00 in 0.00 W/m2
18:17 35.1 °F 33.0 °F 30.38 in Calm     92 % 0.00 in 0.00 W/m2
18:22 35.1 °F 33.0 °F 30.39 in Calm     92 % 0.00 in 0.00 W/m2
18:27 35.1 °F 33.0 °F 30.39 in Calm     92 % 0.00 in 0.00 W/m2
18:32 35.0 °F 32.9 °F 30.39 in Calm     92 % 0.00 in 0.00 W/m2
18:37 35.0 °F 32.9 °F 30.39 in Calm     92 % 0.00 in 0.00 W/m2
18:42 34.9 °F 32.8 °F 30.39 in Calm     92 % 0.00 in 0.00 W/m2
18:47 34.9 °F 32.8 °F 30.39 in Calm     92 % 0.00 in 0.00 W/m2
18:52 34.8 °F 32.7 °F 30.40 in Calm     92 % 0.00 in 0.00 W/m2
18:57 34.8 °F 32.7 °F 30.40 in Calm     92 % 0.00 in 0.00 W/m2
19:02 34.8 °F 32.7 °F 30.40 in Calm     92 % 0.00 in 0.00 W/m2
19:07 34.8 °F 32.7 °F 30.40 in Calm     92 % 0.00 in 0.00 W/m2
19:12 34.7 °F 32.6 °F 30.40 in Calm     92 % 0.00 in 0.00 W/m2
19:17 34.7 °F 32.6 °F 30.40 in Calm     92 % 0.00 in 0.00 W/m2
19:22 34.7 °F 32.6 °F 30.40 in Calm     92 % 0.00 in 0.00 W/m2
19:27 34.7 °F 32.6 °F 30.40 in Calm     92 % 0.00 in 0.00 W/m2
19:32 34.7 °F 32.6 °F 30.40 in Calm     92 % 0.00 in 0.00 W/m2
19:37 34.7 °F 32.6 °F 30.40 in Calm     92 % 0.00 in 0.00 W/m2
19:42 34.7 °F 32.6 °F 30.40 in Calm     92 % 0.00 in 0.00 W/m2
19:47 34.7 °F 32.6 °F 30.41 in Calm     92 % 0.00 in 0.00 W/m2
19:52 34.7 °F 32.6 °F 30.41 in Calm     92 % 0.00 in 0.00 W/m2
19:57 34.7 °F 32.6 °F 30.41 in Calm     92 % 0.00 in 0.00 W/m2
19:59 34.7 °F 32.6 °F 30.41 in Calm     92 % 0.00 in 0.00 W/m2
20:04 34.7 °F 32.6 °F 30.41 in Calm     92 % 0.00 in 0.00 W/m2
20:09 34.7 °F 32.6 °F 30.41 in Calm     92 % 0.00 in 0.00 W/m2
20:14 34.7 °F 32.6 °F 30.42 in Calm     92 % 0.00 in 0.00 W/m2
20:19 34.7 °F 32.6 °F 30.42 in Calm     92 % 0.00 in 0.00 W/m2
20:24 34.7 °F 32.6 °F 30.42 in Calm     92 % 0.00 in 0.00 W/m2
20:29 34.7 °F 32.6 °F 30.42 in Calm     92 % 0.00 in 0.00 W/m2
20:34 34.6 °F 32.5 °F 30.42 in Calm     92 % 0.00 in 0.00 W/m2
20:39 34.6 °F 32.5 °F 30.42 in Calm     92 % 0.00 in 0.00 W/m2
20:44 34.6 °F 32.5 °F 30.42 in Calm     92 % 0.00 in 0.00 W/m2
20:49 34.6 °F 32.5 °F 30.42 in Calm     92 % 0.00 in 0.00 W/m2
20:54 34.7 °F 32.6 °F 30.43 in Calm     92 % 0.00 in 0.00 W/m2
20:59 34.6 °F 32.5 °F 30.43 in Calm     92 % 0.00 in 0.00 W/m2
21:04 34.6 °F 32.5 °F 30.42 in Calm     92 % 0.00 in 0.00 W/m2
21:09 34.7 °F 32.6 °F 30.42 in Calm     92 % 0.00 in 0.00 W/m2
21:14 34.7 °F 32.6 °F 30.43 in Calm     92 % 0.00 in 0.00 W/m2
21:19 34.6 °F 32.5 °F 30.43 in Calm     92 % 0.00 in 0.00 W/m2
21:24 34.6 °F 32.5 °F 30.43 in Calm     92 % 0.00 in 0.00 W/m2
21:29 34.6 °F 32.5 °F 30.43 in Calm     92 % 0.00 in 0.00 W/m2
21:34 34.6 °F 32.5 °F 30.43 in Calm     92 % 0.00 in 0.00 W/m2
21:39 34.6 °F 32.5 °F 30.43 in Calm     92 % 0.00 in 0.00 W/m2
21:44 34.5 °F 32.4 °F 30.43 in Calm     92 % 0.00 in 0.00 W/m2
21:49 34.6 °F 32.5 °F 30.43 in Calm   4.0 mph 92 % 0.00 in 0.00 W/m2
21:54 34.5 °F 32.4 °F 30.43 in Calm   1.0 mph 92 % 0.00 in 0.00 W/m2
21:59 34.5 °F 32.4 °F 30.43 in Calm     92 % 0.00 in 0.00 W/m2
22:04 34.5 °F 32.4 °F 30.43 in Calm     92 % 0.00 in 0.00 W/m2
22:09 34.5 °F 32.4 °F 30.43 in Calm   2.0 mph 92 % 0.00 in 0.00 W/m2
22:14 34.5 °F 32.4 °F 30.43 in Calm   1.0 mph 92 % 0.00 in 0.00 W/m2
22:19 34.5 °F 32.4 °F 30.44 in Calm   1.0 mph 92 % 0.00 in 0.00 W/m2
22:24 34.5 °F 32.4 °F 30.44 in Calm     92 % 0.00 in 0.00 W/m2
22:29 34.5 °F 32.4 °F 30.44 in Calm     92 % 0.00 in 0.00 W/m2
22:34 34.5 °F 32.4 °F 30.44 in Calm     92 % 0.00 in 0.00 W/m2
22:39 34.5 °F 32.4 °F 30.44 in Calm     92 % 0.00 in 0.00 W/m2
22:44 34.6 °F 32.5 °F 30.44 in Calm     92 % 0.00 in 0.00 W/m2
22:49 34.5 °F 32.4 °F 30.44 in Calm     92 % 0.00 in 0.00 W/m2
22:54 34.5 °F 32.4 °F 30.44 in Calm     92 % 0.00 in 0.00 W/m2
22:59 34.6 °F 32.5 °F 30.44 in Calm   2.0 mph 92 % 0.00 in 0.00 W/m2
23:04 34.5 °F 32.4 °F 30.44 in Calm     92 % 0.00 in 0.00 W/m2
23:09 34.5 °F 32.4 °F 30.44 in Calm   1.0 mph 92 % 0.00 in 0.00 W/m2
23:14 34.5 °F 32.4 °F 30.44 in Calm     92 % 0.00 in 0.00 W/m2
23:19 34.5 °F 32.4 °F 30.43 in Calm     92 % 0.00 in 0.00 W/m2
23:24 34.4 °F 32.3 °F 30.43 in Calm     92 % 0.00 in 0.00 W/m2
23:29 34.4 °F 32.3 °F 30.43 in Calm     92 % 0.00 in 0.00 W/m2
23:34 34.3 °F 32.2 °F 30.43 in Calm   4.0 mph 92 % 0.00 in 0.00 W/m2
23:39 34.2 °F 32.1 °F 30.43 in Calm   4.0 mph 92 % 0.00 in 0.00 W/m2
23:44 34.1 °F 32.0 °F 30.43 in Calm   6.0 mph 92 % 0.00 in 0.00 W/m2
23:49 34.1 °F 32.0 °F 30.43 in ESE 1.0 mph 2.0 mph 92 % 0.00 in 0.00 W/m2
23:54 33.9 °F 31.8 °F 30.43 in Calm   4.0 mph 92 % 0.00 in 0.00 W/m2
23:59 33.8 °F 31.7 °F 30.44 in Calm   2.0 mph 92 % 0.00 in 0.00 W/m2
Juneau County Weather
Compliments of Weather Underground - 4.5 mb
 WU-history PHP script courtesy of   Juneau County Weather.
powered by Cumulus v1.9.3 (1059)
Ambient Weather VWS v14.00
Top Contact Website Map Copyright © 2007 - 2018 Foresthillweather.com Never base important decisions on this or any weather information obtained from the Internet